Flag for Germany Weather past 2 weeks in Norden, Lower Saxony, Germany

Now
69 °F

Clear.


Feels Like: 69 °F
Forecast: 65 / 72 °F
Wind: 7 mph from East

Location: Norderney

Current Time: Jul 24, 2014 at 3:25:12 AM

Latest Report: Jul 24, 2014 at 3:00 AM


Visibility: 18 mi

Pressure: 30.11 "Hg

Humidity: 70%

Dew point: 58 °F

Location of NordenLocation

Historic Weather in Norden — Graph

°F

Norden temperature yesterday

Maximum temperature yesterday: 74 °F (at 3:00 PM)
Minimum temperature yesterday: 68 °F (at 6:00 AM)
Average temperature yesterday: 71 °F

Past Weeks' High & Low Weather Summary

 TemperatureHumidityPressure
High92 °F (Jul 19, 4:00 PM)96% (Jul 21, 9:00 AM)30.20 "Hg (Jul 21, 9:00 AM)
Low60 °F (Jul 12, 6:00 AM)26% (Jul 19, 6:00 PM)29.68 "Hg (Jul 9, 5:00 PM)
Average69 °F76%29.96 "Hg
* Reported Jul 9 2:00 AM — Jul 24 2:00 AM, Norden, Weather by CustomWeather, © 2014

Note: Actual official high and low records may vary slightly from our data, if they occured in-between our weather recording intervals... More about our weather records

Advertising

Norden weather history for previous 24 hours

 ConditionsComfort  
Time TempWeatherWind HumidityBarometerVisibility
2:00 AM
Jul 24
69 °FClear.7 mph73%30.12 "Hg16 mi
1:00 AM69 °FClear.6 mph74%30.12 "Hg16 mi
12:00 AM70 °FClear.7 mph71%30.12 "Hg16 mi
11:00 PM
Jul 23
70 °FClear.7 mph72%30.13 "Hg13 mi
10:00 PM72 °FClear.8 mph69%30.12 "Hg13 mi
9:00 PM71 °FSunny.10 mph79%30.12 "Hg22 mi
8:00 PM72 °FSunny.12 mph75%30.12 "Hg22 mi
7:00 PM72 °FSunny.12 mph72%30.13 "Hg22 mi
6:00 PM73 °FSunny.12 mph71%30.13 "Hg22 mi
5:00 PM74 °FSunny.10 mph72%30.15 "Hg9 mi
4:00 PM74 °FSunny.9 mph73%30.16 "Hg22 mi
3:00 PM74 °FSunny.8 mph71%30.18 "Hg22 mi
6:00 AM68 °FSunny.6 mph83%30.20 "Hg17 mi
5:00 AM68 °FClear.6 mph80%30.20 "Hg12 mi
4:00 AM69 °FPassing clouds.6 mph80%30.19 "Hg12 mi
3:00 AM69 °FClear.6 mph80%30.19 "Hg12 mi
Weather by CustomWeather, © 2014

See weather overviewHow to use our weather pages